Radiation Dose at Monitoring Post of Fukushima Daini Nuclear Power Station
Date,Time,MP-1(microSv/h),MP-2(microSv/h),MP-3(microSv/h),MP-4(microSv/h),MP-5(microSv/h),MP-6(microSv/h),MP-7(microSv/h),Wind Direction,Wind Velocity(m/s),Rain
2023/08/31,00:00,0.152,0.141,0.227,0.215,0.214,0.125,0.078,south-southeast,1.3,No
2023/08/31,00:10,0.152,0.142,0.231,0.217,0.217,0.126,0.078,south,1.8,No
2023/08/31,00:20,0.153,0.140,0.230,0.219,0.215,0.126,0.077,south-southwest,1.8,No
2023/08/31,00:30,0.155,0.139,0.229,0.217,0.214,0.126,0.078,south-southwest,2.0,No
2023/08/31,00:40,0.154,0.141,0.227,0.216,0.213,0.125,0.079,south,1.6,No
2023/08/31,00:50,0.154,0.142,0.231,0.216,0.218,0.125,0.079,south,1.2,No
2023/08/31,01:00,0.153,0.141,0.233,0.219,0.218,0.126,0.078,southwest,1.2,No
2023/08/31,01:10,0.155,0.139,0.230,0.217,0.214,0.126,0.078,south,0.9,No
2023/08/31,01:20,0.155,0.141,0.228,0.215,0.212,0.126,0.080,south-southeast,1.7,No
2023/08/31,01:30,0.154,0.142,0.231,0.216,0.215,0.125,0.080,south,3.0,No
2023/08/31,01:40,0.153,0.141,0.232,0.219,0.217,0.126,0.079,south,3.2,No
2023/08/31,01:50,0.155,0.141,0.229,0.218,0.216,0.126,0.079,south,2.8,No
2023/08/31,02:00,0.156,0.140,0.229,0.217,0.215,0.126,0.080,south-southeast,4.0,No
2023/08/31,02:10,0.154,0.142,0.232,0.215,0.214,0.126,0.080,south,4.1,No
2023/08/31,02:20,0.152,0.141,0.232,0.219,0.216,0.125,0.079,south,4.5,No
2023/08/31,02:30,0.153,0.141,0.230,0.219,0.215,0.127,0.079,south,4.8,No
2023/08/31,02:40,0.155,0.142,0.229,0.216,0.215,0.126,0.079,south,5.1,No
2023/08/31,02:50,0.154,0.141,0.231,0.215,0.214,0.125,0.080,south,5.0,No
2023/08/31,03:00,0.151,0.141,0.231,0.219,0.217,0.127,0.080,south,4.2,No
2023/08/31,03:10,0.153,0.140,0.230,0.219,0.216,0.127,0.079,south,4.4,No
2023/08/31,03:20,0.155,0.142,0.228,0.216,0.214,0.126,0.079,south,4.0,No
2023/08/31,03:30,0.155,0.142,0.232,0.216,0.213,0.126,0.080,south-southwest,4.3,No
2023/08/31,03:40,0.152,0.141,0.230,0.220,0.218,0.125,0.079,south,3.9,No
2023/08/31,03:50,0.154,0.140,0.229,0.219,0.216,0.126,0.079,south,3.6,No
2023/08/31,04:00,0.154,0.141,0.229,0.216,0.214,0.126,0.079,south-southeast,3.7,No
2023/08/31,04:10,0.153,0.141,0.231,0.216,0.213,0.125,0.078,south,3.8,No
2023/08/31,04:20,0.152,0.139,0.230,0.219,0.218,0.126,0.078,south,3.5,No
2023/08/31,04:30,0.154,0.140,0.227,0.217,0.217,0.126,0.079,south,3.6,No
2023/08/31,04:40,0.155,0.141,0.232,0.216,0.214,0.125,0.079,south,3.6,No
2023/08/31,04:50,0.154,0.139,0.231,0.217,0.215,0.127,0.079,south,3.6,No
2023/08/31,05:00,0.152,0.140,0.229,0.220,0.217,0.125,0.079,south-southwest,4.2,No
2023/08/31,05:10,0.155,0.142,0.230,0.217,0.215,0.126,0.079,south-southwest,3.5,No
2023/08/31,05:20,0.155,0.140,0.231,0.216,0.213,0.126,0.079,south-southwest,3.1,No
2023/08/31,05:30,0.153,0.140,0.229,0.219,0.216,0.126,0.079,south-southwest,2.7,No
2023/08/31,05:40,0.153,0.140,0.229,0.218,0.217,0.125,0.078,south-southwest,2.6,No
2023/08/31,05:50,0.155,0.141,0.230,0.217,0.214,0.126,0.079,southwest,2.5,No
2023/08/31,06:00,0.155,0.139,0.230,0.216,0.213,0.126,0.079,southwest,2.7,No
2023/08/31,06:10,0.153,0.141,0.228,0.220,0.216,0.125,0.079,south-southwest,2.8,No
2023/08/31,06:20,0.153,0.141,0.229,0.217,0.216,0.125,0.078,south,2.0,No
2023/08/31,06:30,0.156,0.139,0.230,0.215,0.214,0.126,0.078,south-southwest,2.6,No
2023/08/31,06:40,0.154,0.140,0.230,0.216,0.213,0.126,0.080,south,4.0,No
2023/08/31,06:50,0.153,0.142,0.229,0.220,0.217,0.127,0.079,south,3.3,No
2023/08/31,07:00,0.154,0.141,0.227,0.217,0.217,0.125,0.079,south,2.0,No
2023/08/31,07:10,0.155,0.140,0.229,0.216,0.216,0.126,0.079,south-southeast,1.8,No
2023/08/31,07:20,0.155,0.140,0.228,0.215,0.215,0.126,0.080,south,2.2,No
2023/08/31,07:30,0.154,0.142,0.228,0.215,0.214,0.127,0.080,south-southeast,3.0,No
2023/08/31,07:40,0.152,0.142,0.229,0.217,0.212,0.126,0.079,south-southeast,4.5,No
2023/08/31,07:50,0.152,0.141,0.229,0.215,0.213,0.126,0.079,south-southeast,5.2,No
2023/08/31,08:00,0.153,0.140,0.231,0.218,0.213,0.125,0.079,south-southeast,5.6,No
2023/08/31,08:10,0.154,0.139,0.229,0.216,0.213,0.126,0.079,south-southeast,5.1,No
2023/08/31,08:20,0.154,0.139,0.229,0.217,0.217,0.127,0.079,south-southeast,5.1,No
2023/08/31,08:30,0.154,0.139,0.230,0.216,0.216,0.127,0.079,south-southeast,5.7,No
2023/08/31,08:40,0.154,0.139,0.229,0.217,0.215,0.126,0.079,south-southeast,7.3,No
2023/08/31,08:50,0.154,0.139,0.230,0.218,0.216,0.126,0.078,south-southeast,7.4,No
2023/08/31,09:00,0.153,0.139,0.230,0.217,0.215,0.125,0.078,south-southeast,7.5,No
2023/08/31,09:10,0.154,0.139,0.231,0.217,0.215,0.125,0.079,south-southeast,8.5,No
2023/08/31,09:20,0.153,0.140,0.231,0.217,0.216,0.125,0.078,south-southeast,8.4,No
2023/08/31,09:30,0.153,0.139,0.231,0.217,0.214,0.126,0.078,south-southeast,8.7,No
2023/08/31,09:40,0.153,0.140,0.231,0.217,0.215,0.125,0.078,south-southeast,9.0,No
2023/08/31,09:50,0.154,0.140,0.230,0.218,0.215,0.126,0.078,south-southeast,8.6,No
2023/08/31,10:00,0.153,0.140,0.230,0.218,0.214,0.125,0.078,south-southeast,8.4,No
2023/08/31,10:10,0.154,0.140,0.231,0.218,0.214,0.124,0.079,south-southeast,9.0,No
2023/08/31,10:20,0.153,0.140,0.230,0.217,0.215,0.125,0.079,south-southeast,10.1,No
2023/08/31,10:30,0.154,0.140,0.230,0.218,0.215,0.125,0.078,south-southeast,9.0,No
2023/08/31,10:40,0.154,0.140,0.230,0.218,0.215,0.125,0.078,south-southeast,9.6,No
2023/08/31,10:50,0.154,0.140,0.230,0.218,0.215,0.126,0.079,south-southeast,11.2,No
2023/08/31,11:00,0.154,0.141,0.230,0.218,0.214,0.126,0.078,south-southeast,8.9,No
2023/08/31,11:10,0.154,0.141,0.230,0.217,0.215,0.126,0.078,south-southeast,10.6,No
2023/08/31,11:20,0.154,0.140,0.229,0.218,0.215,0.126,0.078,south-southeast,10.6,No
2023/08/31,11:30,0.154,0.141,0.230,0.217,0.214,0.126,0.078,south-southeast,10.1,No
2023/08/31,11:40,0.154,0.140,0.230,0.216,0.215,0.126,0.079,south-southeast,10.6,No
2023/08/31,11:50,0.154,0.141,0.229,0.216,0.215,0.125,0.078,south-southeast,9.2,No
2023/08/31,12:00,0.155,0.141,0.230,0.219,0.216,0.124,0.079,south,11.5,No
2023/08/31,12:10,0.153,0.140,0.231,0.218,0.214,0.126,0.078,south-southeast,10.9,No
2023/08/31,12:20,0.154,0.140,0.229,0.218,0.215,0.126,0.079,south-southeast,10.9,No
2023/08/31,12:30,0.153,0.140,0.231,0.218,0.214,0.125,0.078,south-southeast,8.9,No
2023/08/31,12:40,0.154,0.141,0.230,0.218,0.214,0.125,0.078,south-southeast,11.2,No
2023/08/31,12:50,0.155,0.140,0.231,0.217,0.216,0.125,0.078,south-southeast,10.1,No
2023/08/31,13:00,0.154,0.140,0.230,0.218,0.214,0.125,0.078,south,11.1,No
2023/08/31,13:10,0.153,0.140,0.230,0.217,0.215,0.126,0.078,south-southeast,11.4,No
2023/08/31,13:20,0.155,0.140,0.229,0.217,0.215,0.125,0.078,south-southeast,9.2,No
2023/08/31,13:30,0.154,0.140,0.230,0.217,0.215,0.125,0.078,south-southeast,10.6,No
2023/08/31,13:40,0.154,0.141,0.230,0.217,0.214,0.125,0.078,south-southeast,9.5,No
2023/08/31,13:50,0.153,0.140,0.230,0.217,0.215,0.125,0.077,south-southeast,10.1,No
2023/08/31,14:00,0.153,0.140,0.229,0.216,0.214,0.125,0.078,south-southeast,9.2,No
2023/08/31,14:10,0.154,0.140,0.229,0.217,0.215,0.125,0.078,south,12.0,No
2023/08/31,14:20,0.153,0.141,0.228,0.217,0.214,0.125,0.077,south,10.6,No
2023/08/31,14:30,0.152,0.141,0.230,0.217,0.214,0.125,0.078,south-southeast,10.9,No
2023/08/31,14:40,0.154,0.140,0.229,0.217,0.213,0.125,0.078,south-southeast,10.4,No
2023/08/31,14:50,0.154,0.141,0.228,0.216,0.215,0.126,0.078,south,9.8,No
2023/08/31,15:00,0.154,0.140,0.230,0.216,0.214,0.126,0.078,south-southeast,11.7,No
2023/08/31,15:10,0.153,0.139,0.228,0.215,0.214,0.125,0.078,south-southeast,11.4,No
2023/08/31,15:20,0.153,0.140,0.228,0.215,0.214,0.125,0.078,south-southeast,10.6,No
2023/08/31,15:30,0.152,0.139,0.230,0.216,0.214,0.126,0.078,south-southeast,11.4,No
2023/08/31,15:40,0.152,0.139,0.230,0.216,0.214,0.125,0.077,south-southeast,10.4,No
2023/08/31,15:50,0.152,0.140,0.229,0.216,0.214,0.125,0.077,south-southeast,10.9,No
2023/08/31,16:00,0.153,0.140,0.228,0.216,0.214,0.125,0.078,south-southeast,10.7,No
2023/08/31,16:10,0.152,0.139,0.228,0.215,0.214,0.125,0.077,south-southeast,10.6,No
2023/08/31,16:20,0.153,0.139,0.228,0.215,0.214,0.125,0.077,south,10.6,No
2023/08/31,16:30,0.152,0.139,0.228,0.214,0.214,0.125,0.077,south-southeast,10.3,No
2023/08/31,16:40,0.153,0.139,0.227,0.214,0.213,0.125,0.078,south,9.0,No
2023/08/31,16:50,0.152,0.139,0.228,0.218,0.214,0.125,0.078,south-southeast,7.5,No
2023/08/31,17:00,0.152,0.138,0.232,0.219,0.213,0.125,0.078,south,8.1,No
2023/08/31,17:10,0.153,0.140,0.232,0.217,0.213,0.125,0.078,south,7.2,No
2023/08/31,17:20,0.154,0.141,0.229,0.216,0.212,0.125,0.078,south,6.9,No
2023/08/31,17:30,0.154,0.140,0.230,0.216,0.213,0.125,0.077,south,5.6,No
2023/08/31,17:40,0.154,0.139,0.229,0.215,0.213,0.126,0.078,south,6.5,No
2023/08/31,17:50,0.153,0.139,0.227,0.217,0.213,0.125,0.079,south,6.6,No
2023/08/31,18:00,0.152,0.139,0.230,0.219,0.215,0.125,0.078,south,6.8,No
2023/08/31,18:10,0.152,0.139,0.232,0.218,0.215,0.125,0.077,south,6.4,No
2023/08/31,18:20,0.154,0.141,0.230,0.216,0.214,0.125,0.078,south,6.2,No
2023/08/31,18:30,0.155,0.140,0.229,0.215,0.215,0.126,0.078,south,6.1,No
2023/08/31,18:40,0.154,0.139,0.227,0.216,0.212,0.126,0.079,south-southwest,5.5,No
2023/08/31,18:50,0.153,0.139,0.230,0.219,0.216,0.125,0.078,south-southwest,5.3,No
2023/08/31,19:00,0.153,0.141,0.231,0.217,0.216,0.126,0.077,south-southwest,6.8,No
2023/08/31,19:10,0.154,0.140,0.230,0.215,0.214,0.124,0.078,south,5.9,No
2023/08/31,19:20,0.154,0.140,0.227,0.216,0.213,0.124,0.077,south,6.4,No
2023/08/31,19:30,0.154,0.139,0.231,0.218,0.216,0.125,0.078,south,6.0,No
2023/08/31,19:40,0.152,0.140,0.231,0.219,0.216,0.126,0.078,south,5.1,No
2023/08/31,19:50,0.154,0.141,0.229,0.217,0.214,0.126,0.078,south,5.4,No
2023/08/31,20:00,0.154,0.139,0.228,0.215,0.214,0.126,0.077,south,5.0,No
2023/08/31,20:10,0.153,0.139,0.230,0.215,0.212,0.124,0.078,south,5.8,No
2023/08/31,20:20,0.152,0.140,0.231,0.219,0.216,0.125,0.078,south,5.8,No
2023/08/31,20:30,0.153,0.140,0.229,0.218,0.216,0.125,0.078,south,6.1,No
2023/08/31,20:40,0.155,0.139,0.228,0.215,0.213,0.126,0.077,south,5.5,No
2023/08/31,20:50,0.154,0.138,0.230,0.216,0.213,0.125,0.078,south,6.0,No
2023/08/31,21:00,0.152,0.141,0.231,0.219,0.216,0.125,0.078,south,6.1,No
2023/08/31,21:10,0.155,0.140,0.229,0.217,0.215,0.125,0.078,south,5.8,No
2023/08/31,21:20,0.154,0.140,0.227,0.216,0.213,0.126,0.078,south,6.1,No
2023/08/31,21:30,0.153,0.139,0.230,0.215,0.212,0.125,0.077,south,6.3,No
2023/08/31,21:40,0.152,0.141,0.231,0.218,0.217,0.125,0.078,south,6.0,No
2023/08/31,21:50,0.155,0.140,0.229,0.218,0.216,0.125,0.079,south,5.7,No
2023/08/31,22:00,0.153,0.139,0.227,0.217,0.214,0.126,0.078,south,5.5,No
2023/08/31,22:10,0.152,0.140,0.232,0.216,0.213,0.125,0.078,south,5.9,No
2023/08/31,22:20,0.152,0.142,0.230,0.219,0.217,0.126,0.078,south-southeast,6.5,No
2023/08/31,22:30,0.154,0.140,0.229,0.219,0.215,0.124,0.078,south,6.8,No
2023/08/31,22:40,0.154,0.140,0.228,0.217,0.214,0.126,0.077,south,6.2,No
2023/08/31,22:50,0.154,0.141,0.231,0.215,0.213,0.126,0.078,south,6.3,No
2023/08/31,23:00,0.152,0.140,0.231,0.218,0.216,0.125,0.078,south,6.3,No
2023/08/31,23:10,0.154,0.140,0.228,0.218,0.215,0.125,0.078,south,5.8,No
2023/08/31,23:20,0.154,0.140,0.231,0.215,0.213,0.124,0.078,south,5.6,No
2023/08/31,23:30,0.153,0.140,0.231,0.217,0.214,0.127,0.078,south,5.3,No
2023/08/31,23:40,0.153,0.139,0.229,0.219,0.216,0.126,0.079,south,5.1,No
2023/08/31,23:50,0.155,0.140,0.230,0.218,0.214,0.125,0.078,south,4.7,No
